OPTUS-X (ADS-01)

Last updated on Sun Jun 21 2026 00:03:09 GMT+0000 (Coordinated Universal Time)

1 62006U 24212A 26171.35170538 -.00000148 00000+0 00000+0 0 9996 2 62006 0.0108 311.5369 0001878 178.3382 61.6776 1.00271869 5797
UTC large
Height (km)
Speed (km/s)
/
Latitude / Longitude
Inclination (degrees)
Orbital Period (minutes)
Azimuth
Elevation
Range (km)
Doppler Factor

Next 0 passes for location: London (51.5072 / 0.1276)

No passes found over London.
OPTUS-X (ADS-01)